| time (UTC) | temp F | wind direction | speed MPH | gust MPH | rain 1hr in | rain 24hr in | rain mn in | humidity % | barometer mb |
| 20260906022516 | 80 | 135 | 3.0 | 6.0 | 0.00 | 0.00 | 0.00 | 18 | 1014.3 |
| 20260906021516 | 80 | 225 | 1.0 | 6.0 | 0.00 | 0.00 | 0.00 | 18 | 1014.0 |
| 20260906020556 | 81 | 0.0 | 1.0 | 0.00 | 0.00 | 0.00 | 17 | 1014.2 | |
| 20260906015516 | 82 | 0.0 | 2.0 | 0.00 | 0.00 | 0.00 | 17 | 1014.2 | |
| 20260906014516 | 83 | 248 | 1.0 | 4.0 | 0.00 | 0.00 | 0.00 | 16 | 1014.6 |
| 20260906013516 | 84 | 0.0 | 1.0 | 0.00 | 0.00 | 0.00 | 16 | 1014.8 | |
| 20260906012516 | 85 | 248 | 3.0 | 6.0 | 0.00 | 0.00 | 0.00 | 15 | 1014.8 |
| 20260906011516 | 86 | 225 | 2.0 | 5.0 | 0.00 | 0.00 | 0.00 | 14 | 1015.2 |
| 20260906010617 | 86 | 135 | 3.0 | 9.0 | 0.00 | 0.00 | 0.00 | 14 | 1015.2 |
| 20260906005516 | 86 | 225 | 3.0 | 6.0 | 0.00 | 0.00 | 0.00 | 14 | 1015.4 |
| 20260906004516 | 86 | 135 | 2.0 | 6.0 | 0.00 | 0.00 | 0.00 | 13 | 1015.2 |
| 20260906003536 | 86 | 225 | 2.0 | 6.0 | 0.00 | 0.00 | 0.00 | 13 | 1015.3 |
| 20260906002516 | 86 | 203 | 2.0 | 7.0 | 0.00 | 0.00 | 0.00 | 14 | 1015.4 |
| 20260906001516 | 86 | 248 | 4.0 | 9.0 | 0.00 | 0.00 | 0.00 | 13 | 1015.4 |
| 20260906000516 | 86 | 158 | 3.0 | 5.0 | 0.00 | 0.00 | 0.00 | 12 | 1015.4 |
| 20260905235516 | 87 | 225 | 3.0 | 6.0 | 0.00 | 0.00 | 0.00 | 12 | 1016.0 |
| 20260905234516 | 86 | 248 | 4.0 | 10.0 | 0.00 | 0.00 | 0.00 | 13 | 1015.6 |
| 20260905233516 | 85 | 248 | 4.0 | 9.0 | 0.00 | 0.00 | 0.00 | 13 | 1015.7 |
| 20260905232516 | 86 | 248 | 4.0 | 11.0 | 0.00 | 0.00 | 0.00 | 13 | 1015.7 |
| 20260905231516 | 86 | 225 | 5.0 | 11.0 | 0.00 | 0.00 | 0.00 | 13 | 1016.2 |
| 20260905230516 | 86 | 248 | 5.0 | 13.0 | 0.00 | 0.00 | 0.00 | 12 | 1016.2 |
| 20260905225517 | 85 | 203 | 6.0 | 14.0 | 0.00 | 0.00 | 0.00 | 13 | 1016.0 |
| 20260905224536 | 85 | 225 | 6.0 | 15.0 | 0.00 | 0.00 | 0.00 | 12 | 1016.0 |
| 20260905223516 | 86 | 225 | 5.0 | 13.0 | 0.00 | 0.00 | 0.00 | 13 | 1016.4 |
| 20260905222557 | 86 | 225 | 6.0 | 12.0 | 0.00 | 0.00 | 0.00 | 13 | 1016.5 |
| 20260905221516 | 85 | 203 | 5.0 | 12.0 | 0.00 | 0.00 | 0.00 | 14 | 1016.6 |
| 20260905220516 | 85 | 158 | 6.0 | 15.0 | 0.00 | 0.00 | 0.00 | 15 | 1016.7 |
| 20260905215516 | 84 | 225 | 6.0 | 12.0 | 0.00 | 0.00 | 0.00 | 15 | 1016.5 |
| 20260905214517 | 84 | 225 | 9.0 | 16.0 | 0.00 | 0.00 | 0.00 | 15 | 1016.8 |
| 20260905213516 | 84 | 203 | 7.0 | 19.0 | 0.00 | 0.00 | 0.00 | 14 | 1016.8 |
| 20260905212516 | 84 | 225 | 9.0 | 16.0 | 0.00 | 0.00 | 0.00 | 15 | 1017.0 |
| 20260905211536 | 84 | 225 | 6.0 | 16.0 | 0.00 | 0.00 | 0.00 | 15 | 1017.0 |
| 20260905210516 | 84 | 225 | 6.0 | 15.0 | 0.00 | 0.00 | 0.00 | 15 | 1017.2 |
| 20260905205516 | 84 | 225 | 6.0 | 15.0 | 0.00 | 0.00 | 0.00 | 15 | 1017.4 |
| 20260905204516 | 83 | 225 | 9.0 | 22.0 | 0.00 | 0.00 | 0.00 | 15 | 1017.3 |
| 20260905203536 | 83 | 225 | 7.0 | 15.0 | 0.00 | 0.00 | 0.00 | 17 | 1017.4 |
| 20260905202516 | 82 | 225 | 7.0 | 15.0 | 0.00 | 0.00 | 0.00 | 17 | 1017.5 |
| 20260905201516 | 82 | 248 | 5.0 | 16.0 | 0.00 | 0.00 | 0.00 | 18 | 1017.5 |
| 20260905200516 | 82 | 203 | 5.0 | 13.0 | 0.00 | 0.00 | 0.00 | 17 | 1017.6 |
| 20260905195536 | 82 | 225 | 5.0 | 15.0 | 0.00 | 0.00 | 0.00 | 17 | 1017.8 |
| 20260905194516 | 81 | 225 | 8.0 | 18.0 | 0.00 | 0.00 | 0.00 | 17 | 1017.5 |
| 20260905193516 | 81 | 225 | 7.0 | 15.0 | 0.00 | 0.00 | 0.00 | 18 | 1017.9 |
| 20260905192516 | 81 | 225 | 7.0 | 17.0 | 0.00 | 0.00 | 0.00 | 18 | 1017.6 |
| 20260905191516 | 80 | 225 | 10.0 | 21.0 | 0.00 | 0.00 | 0.00 | 19 | 1017.8 |
| 20260905190516 | 80 | 225 | 10.0 | 21.0 | 0.00 | 0.00 | 0.00 | 19 | 1017.8 |
| 20260905185517 | 79 | 225 | 7.0 | 23.0 | 0.00 | 0.00 | 0.00 | 19 | 1018.0 |
| 20260905184516 | 79 | 225 | 8.0 | 18.0 | 0.00 | 0.00 | 0.00 | 19 | 1018.1 |
| 20260905183516 | 79 | 225 | 8.0 | 15.0 | 0.00 | 0.00 | 0.00 | 19 | 1018.1 |
| 20260905182516 | 79 | 225 | 6.0 | 12.0 | 0.00 | 0.00 | 0.00 | 20 | 1018.4 |
| 20260905181516 | 79 | 248 | 6.0 | 14.0 | 0.00 | 0.00 | 0.00 | 20 | 1018.4 |
| 20260905180516 | 79 | 225 | 6.0 | 16.0 | 0.00 | 0.00 | 0.00 | 19 | 1018.5 |
| 20260905175516 | 78 | 225 | 6.0 | 15.0 | 0.00 | 0.00 | 0.00 | 19 | 1018.6 |
| 20260905174516 | 78 | 248 | 7.0 | 16.0 | 0.00 | 0.00 | 0.00 | 18 | 1018.6 |
| 20260905173556 | 78 | 225 | 7.0 | 14.0 | 0.00 | 0.00 | 0.00 | 19 | 1018.7 |
| 20260905172516 | 77 | 158 | 6.0 | 13.0 | 0.00 | 0.00 | 0.00 | 20 | 1018.6 |
| 20260905171516 | 77 | 248 | 6.0 | 15.0 | 0.00 | 0.00 | 0.00 | 20 | 1018.8 |
| 20260905170516 | 77 | 203 | 5.0 | 12.0 | 0.00 | 0.00 | 0.00 | 20 | 1018.6 |
| 20260905165516 | 77 | 225 | 5.0 | 14.0 | 0.00 | 0.00 | 0.00 | 20 | 1018.7 |
| 20260905164536 | 76 | 135 | 6.0 | 12.0 | 0.00 | 0.00 | 0.00 | 19 | 1018.7 |
| 20260905163516 | 76 | 158 | 6.0 | 11.0 | 0.00 | 0.00 | 0.00 | 20 | 1018.8 |
| 20260905162516 | 76 | 158 | 5.0 | 11.0 | 0.00 | 0.00 | 0.00 | 21 | 1018.9 |
| 20260905161536 | 76 | 248 | 5.0 | 13.0 | 0.00 | 0.00 | 0.00 | 20 | 1018.4 |
| 20260905160516 | 76 | 158 | 4.0 | 13.0 | 0.00 | 0.00 | 0.00 | 20 | 1018.8 |
| 20260905155536 | 75 | 225 | 4.0 | 9.0 | 0.00 | 0.00 | 0.00 | 20 | 1018.9 |
| 20260905154516 | 75 | 225 | 5.0 | 10.0 | 0.00 | 0.00 | 0.00 | 20 | 1018.9 |
| 20260905153516 | 75 | 158 | 4.0 | 9.0 | 0.00 | 0.00 | 0.00 | 20 | 1018.9 |
| 20260905152516 | 74 | 135 | 3.0 | 8.0 | 0.00 | 0.00 | 0.00 | 23 | 1018.6 |
| 20260905151516 | 73 | 225 | 3.0 | 10.0 | 0.00 | 0.00 | 0.00 | 25 | 1018.6 |
| 20260905150516 | 71 | 113 | 1.0 | 3.0 | 0.00 | 0.00 | 0.00 | 25 | 1018.3 |
| 20260905145516 | 70 | 90 | 1.0 | 5.0 | 0.00 | 0.00 | 0.00 | 28 | 1018.0 |
| 20260905144516 | 70 | 180 | 1.0 | 3.0 | 0.00 | 0.00 | 0.00 | 27 | 1017.9 |
| 20260905143517 | 71 | 135 | 3.0 | 9.0 | 0.00 | 0.00 | 0.00 | 25 | 1017.8 |
| 20260905142516 | 70 | 158 | 3.0 | 9.0 | 0.00 | 0.00 | 0.00 | 25 | 1017.7 |
| 20260905141516 | 71 | 135 | 2.0 | 9.0 | 0.00 | 0.00 | 0.00 | 23 | 1017.6 |
| 20260905140515 | 71 | 225 | 2.0 | 6.0 | 0.00 | 0.00 | 0.00 | 23 | 1018.1 |
| 20260905135516 | 72 | 225 | 4.0 | 9.0 | 0.00 | 0.00 | 0.00 | 22 | 1018.1 |
| 20260905134557 | 72 | 225 | 3.0 | 10.0 | 0.00 | 0.00 | 0.00 | 22 | 1018.0 |
| 20260905133515 | 72 | 135 | 5.0 | 12.0 | 0.00 | 0.00 | 0.00 | 22 | 1018.1 |
| 20260905132516 | 72 | 158 | 1.0 | 4.0 | 0.00 | 0.00 | 0.00 | 22 | 1017.9 |
| 20260905131516 | 72 | 158 | 4.0 | 9.0 | 0.00 | 0.00 | 0.00 | 21 | 1017.8 |
| 20260905130515 | 72 | 135 | 3.0 | 6.0 | 0.00 | 0.00 | 0.00 | 21 | 1017.6 |
| 20260905125516 | 73 | 225 | 7.0 | 19.0 | 0.00 | 0.00 | 0.00 | 20 | 1017.8 |
| 20260905124516 | 73 | 158 | 7.0 | 17.0 | 0.00 | 0.00 | 0.00 | 20 | 1017.7 |
| 20260905123515 | 73 | 158 | 6.0 | 12.0 | 0.00 | 0.00 | 0.00 | 19 | 1017.6 |
| 20260905122516 | 73 | 203 | 4.0 | 13.0 | 0.00 | 0.00 | 0.00 | 19 | 1017.7 |
| 20260905121536 | 73 | 158 | 6.0 | 16.0 | 0.00 | 0.00 | 0.00 | 19 | 1017.5 |
| 20260905120516 | 73 | 203 | 3.0 | 12.0 | 0.00 | 0.00 | 0.00 | 20 | 1017.6 |
| 20260905115515 | 73 | 158 | 3.0 | 11.0 | 0.00 | 0.00 | 0.00 | 19 | 1017.6 |
| 20260905114516 | 73 | 135 | 5.0 | 16.0 | 0.00 | 0.00 | 0.00 | 19 | 1017.6 |
| 20260905113516 | 74 | 158 | 5.0 | 13.0 | 0.00 | 0.00 | 0.00 | 19 | 1017.5 |
| 20260905112516 | 74 | 135 | 6.0 | 13.0 | 0.00 | 0.00 | 0.00 | 18 | 1017.6 |
| 20260905111516 | 74 | 158 | 8.0 | 15.0 | 0.00 | 0.00 | 0.00 | 18 | 1017.5 |
| 20260905110515 | 74 | 135 | 6.0 | 13.0 | 0.00 | 0.00 | 0.00 | 19 | 1017.5 |
| 20260905105516 | 74 | 158 | 7.0 | 18.0 | 0.00 | 0.00 | 0.00 | 19 | 1017.3 |
| 20260905104515 | 74 | 158 | 8.0 | 15.0 | 0.00 | 0.00 | 0.00 | 19 | 1017.2 |
| 20260905103516 | 74 | 135 | 8.0 | 15.0 | 0.00 | 0.00 | 0.00 | 19 | 1017.4 |
| 20260905102517 | 74 | 158 | 6.0 | 15.0 | 0.00 | 0.00 | 0.00 | 20 | 1017.4 |
| 20260905101516 | 75 | 158 | 7.0 | 13.0 | 0.00 | 0.00 | 0.00 | 20 | 1017.6 |
| 20260905100516 | 75 | 158 | 8.0 | 17.0 | 0.00 | 0.00 | 0.00 | 21 | 1017.3 |
| 20260905095516 | 75 | 180 | 8.0 | 17.0 | 0.00 | 0.00 | 0.00 | 21 | 1017.1 |
| 20260905094516 | 75 | 158 | 6.0 | 14.0 | 0.00 | 0.00 | 0.00 | 22 | 1017.1 |
| 20260905093515 | 75 | 203 | 5.0 | 15.0 | 0.00 | 0.00 | 0.00 | 23 | 1017.0 |
| 20260905092516 | 75 | 158 | 5.0 | 10.0 | 0.00 | 0.00 | 0.00 | 25 | 1016.9 |
| 20260905091515 | 75 | 158 | 5.0 | 14.0 | 0.00 | 0.00 | 0.00 | 25 | 1016.9 |
| 20260905090516 | 75 | 135 | 4.0 | 10.0 | 0.00 | 0.00 | 0.00 | 26 | 1016.4 |
| 20260905085515 | 75 | 203 | 5.0 | 9.0 | 0.00 | 0.00 | 0.00 | 26 | 1016.4 |
| 20260905084515 | 75 | 135 | 5.0 | 12.0 | 0.00 | 0.00 | 0.00 | 26 | 1016.3 |
| 20260905083516 | 76 | 158 | 6.0 | 15.0 | 0.00 | 0.00 | 0.00 | 26 | 1016.2 |
| 20260905082536 | 76 | 135 | 7.0 | 13.0 | 0.00 | 0.00 | 0.00 | 26 | 1016.4 |
| 20260905081515 | 76 | 135 | 7.0 | 22.0 | 0.00 | 0.00 | 0.00 | 25 | 1016.3 |
| 20260905080516 | 76 | 158 | 6.0 | 12.0 | 0.00 | 0.00 | 0.00 | 25 | 1016.2 |
| 20260905075516 | 76 | 158 | 7.0 | 14.0 | 0.00 | 0.00 | 0.00 | 25 | 1016.1 |
| 20260905074515 | 76 | 158 | 6.0 | 11.0 | 0.00 | 0.00 | 0.00 | 25 | 1016.1 |
| 20260905073516 | 77 | 158 | 6.0 | 16.0 | 0.00 | 0.00 | 0.00 | 25 | 1015.9 |
| 20260905072515 | 77 | 135 | 9.0 | 20.0 | 0.00 | 0.00 | 0.00 | 24 | 1015.7 |
| 20260905071516 | 77 | 158 | 7.0 | 18.0 | 0.00 | 0.00 | 0.00 | 25 | 1015.8 |
| 20260905070516 | 77 | 135 | 5.0 | 10.0 | 0.00 | 0.00 | 0.00 | 25 | 1015.5 |
| 20260905065516 | 77 | 135 | 4.0 | 11.0 | 0.00 | 0.00 | 0.00 | 24 | 1015.3 |
| 20260905064515 | 77 | 135 | 6.0 | 19.0 | 0.00 | 0.00 | 0.00 | 24 | 1015.2 |
| 20260905063515 | 78 | 135 | 6.0 | 13.0 | 0.00 | 0.00 | 0.00 | 24 | 1015.1 |
| 20260905062516 | 78 | 135 | 6.0 | 17.0 | 0.00 | 0.00 | 0.00 | 24 | 1015.0 |
| 20260905061516 | 78 | 158 | 5.0 | 11.0 | 0.00 | 0.00 | 0.00 | 24 | 1014.8 |
| 20260905060515 | 78 | 135 | 6.0 | 14.0 | 0.00 | 0.00 | 0.00 | 24 | 1014.4 |
| 20260905055516 | 78 | 135 | 7.0 | 16.0 | 0.00 | 0.00 | 0.00 | 24 | 1014.3 |
| 20260905054516 | 78 | 135 | 7.0 | 17.0 | 0.00 | 0.00 | 0.00 | 23 | 1014.2 |
| 20260905053516 | 78 | 158 | 4.0 | 15.0 | 0.00 | 0.00 | 0.00 | 23 | 1014.1 |
| 20260905052556 | 79 | 225 | 6.0 | 18.0 | 0.00 | 0.00 | 0.00 | 23 | 1014.1 |
| 20260905051516 | 79 | 158 | 7.0 | 15.0 | 0.00 | 0.00 | 0.00 | 23 | 1014.0 |
| 20260905050516 | 79 | 158 | 8.0 | 16.0 | 0.00 | 0.00 | 0.00 | 22 | 1013.9 |
| 20260905045516 | 79 | 158 | 8.0 | 16.0 | 0.00 | 0.00 | 0.00 | 22 | 1013.8 |
| 20260905044517 | 78 | 135 | 8.0 | 14.0 | 0.00 | 0.00 | 0.00 | 22 | 1013.9 |
| 20260905043516 | 77 | 158 | 8.0 | 19.0 | 0.00 | 0.00 | 0.00 | 23 | 1013.6 |
| 20260905042516 | 77 | 135 | 6.0 | 13.0 | 0.00 | 0.00 | 0.00 | 24 | 1013.2 |
| 20260905041516 | 77 | 113 | 6.0 | 12.0 | 0.00 | 0.00 | 0.00 | 24 | 1013.5 |
| 20260905040536 | 78 | 135 | 3.0 | 10.0 | 0.00 | 0.00 | 0.00 | 24 | 1013.4 |
| 20260905035516 | 79 | 225 | 4.0 | 10.0 | 0.00 | 0.00 | 0.00 | 23 | 1013.4 |
| 20260905034516 | 79 | 135 | 6.0 | 14.0 | 0.00 | 0.00 | 0.00 | 22 | 1013.2 |
| 20260905033516 | 78 | 135 | 4.0 | 9.0 | 0.00 | 0.00 | 0.00 | 24 | 1012.8 |
| 20260905032517 | 79 | 135 | 3.0 | 8.0 | 0.00 | 0.00 | 0.00 | 24 | 1013.1 |
| 20260905030536 | 80 | 158 | 4.0 | 9.0 | 0.00 | 0.00 | 0.00 | 23 | 1012.8 |
| 20260905025516 | 80 | 158 | 3.0 | 6.0 | 0.00 | 0.00 | 0.00 | 23 | 1012.6 |
| 20260905024516 | 81 | 135 | 5.0 | 14.0 | 0.00 | 0.00 | 0.00 | 23 | 1012.4 |
| 20260905023516 | 81 | 135 | 6.0 | 14.0 | 0.00 | 0.00 | 0.00 | 23 | 1012.3 |